Location: Unspecified
(56.5167°N, 0.0000°E)
Time: 15:08:24
(UTC+01:00)

Cosmos 1674 - Visible Passes

Search period start: 06 March 2015 00:00
Search period end: 16 March 2015 00:00
Orbit: 508 x 535 km, 82.5° (Epoch: 04 March)

Date Brightness Start Highest point End Pass type
(mag) Time Alt. Az. Time Alt. Az. Time Alt. Az.
06 Mar 5.8 23:10:29 10° N 23:10:48 12° N 23:10:48 12° N visible
07 Mar 5.6 22:57:23 10° N 22:57:57 14° N 22:57:57 14° N visible
08 Mar 5.4 22:44:17 10° N 22:45:05 15° N 22:45:05 15° N visible
09 Mar 5.2 22:31:11 10° N 22:32:14 17° N 22:32:14 17° N visible
10 Mar 4.9 22:18:05 10° N 22:19:23 19° N 22:19:23 19° N visible
10 Mar 6.0 23:54:17 10° NW 23:54:32 11° NW 23:54:32 11° NW visible
11 Mar 4.7 22:04:57 10° N 22:06:32 21° NNE 22:06:32 21° NNE visible
11 Mar 5.8 23:41:03 10° NNW 23:41:41 14° NW 23:41:41 14° NW visible
12 Mar 4.5 21:51:51 10° N 21:53:42 23° NNE 21:53:42 23° NNE visible
12 Mar 5.6 23:27:49 10° NNW 23:28:51 16° NW 23:28:51 16° NW visible
13 Mar 4.3 21:38:44 10° N 21:40:51 24° NNE 21:40:51 24° NNE visible
13 Mar 5.3 23:14:34 10° NNW 23:16:00 20° NW 23:16:00 20° NW visible
14 Mar 4.1 21:25:36 10° N 21:28:01 25° NE 21:28:01 25° NE visible
14 Mar 5.0 23:01:20 10° NNW 23:03:10 24° NW 23:03:10 24° NW visible
15 Mar 4.1 21:12:29 10° N 21:15:12 24° NE 21:15:12 24° NE visible
15 Mar 4.6 22:48:06 10° NNW 22:50:21 29° NW 22:50:21 29° NW visible
